Regional Weather Roundup
Issued by NWS

Home | Current Version | Previous Version | Graphics & Text | Print | Product List | Glossary On
Versions: 1 2 3 4 5 6 7 8 9 10 11 12 13 14 15 16 17 18 19 20 21 22 23 24 25 26 27 28 29 30 31 32 33 34 35 36 37 38 39 40 41 42 43 44 45 46 47 48 49 50
000
ASUS43 KLSX 011659
RWRMO

WEATHER SUMMARY FOR MISSOURI
NATIONAL WEATHER SERVICE SPRINGFIELD MO
1200 PM CDT WED JUL 01 2015

NOTE: "FAIR" INDICATES FEW OR NO CLOUDS BELOW 12,000 FEET WITH NO
       SIGNIFICANT WEATHER AND/OR OBSTRUCTIONS TO VISIBILITY.
       CURRENT SKY AND/OR WEATHER CONDITIONS ARE NOT AVAILABLE FOR
       CHILLICOTHE AND FARMINGTON.

MOZ001>031-035>038-043-044-053-054-011800-
...NORTHERN AND WESTERN MISSOURI...

CITY           SKY/WX    TMP DP  RH WIND       PRES   REMARKS
KANSAS CTY INT PTSUNNY   79  72  79 E8        29.86R
KANSAS C DTWN  PTSUNNY   83  73  72 SE8       29.84R
LEE`S SUMMIT   CLOUDY    79  72  79 S9G23     29.87R
ST JOSEPH      MOSUNNY   80  71  74 NE12      29.86S
CHILLICOTHE      N/A     76  71  85 S7        29.91F
KIRKSVILLE     LGT RAIN  76  69  79 SE13      29.89F

$$
MOZ066>068-077>081-088>096-101>105-011800-
...SOUTHWEST MISSOURI...

CITY           SKY/WX    TMP DP  RH WIND       PRES   REMARKS
SPRINGFIELD    CLOUDY    71  67  87 S18       29.97F
JOPLIN         PTSUNNY   84  74  71 SE13      29.91F HX  91

$$
MOZ032>034-039>042-045>050-055>058-069>072-011800-
...CENTRAL MISSOURI...

CITY           SKY/WX    TMP DP  RH WIND       PRES   REMARKS
COLUMBIA       LGT RAIN  75  68  78 S13       29.92R
JEFFERSON CITY PTSUNNY   76  68  76 SW9       29.91R
ROLLA          CLOUDY    74  69  85 S16       29.91F
SEDALIA        CLOUDY    73  69  87 E9        29.91R
OSAGE BEACH    CLOUDY    70  66  88 S5        29.92F

$$
MOZ051-052-059>065-011800-
...EAST CENTRAL MISSOURI...

CITY           SKY/WX    TMP DP  RH WIND       PRES   REMARKS
ST LOUIS INTL  PTSUNNY   80  68  66 SW10      29.92F
SPIRIT OF STL  PTSUNNY   78  70  76 W8        29.90F
ST CHARLES     PTSUNNY   80  70  71 SW12G18   29.90F

$$
MOZ072>076-082>087-097>100-106>115-011800-
...SOUTH CENTRAL AND SOUTHEAST MISSOURI...

CITY           SKY/WX    TMP DP  RH WIND       PRES   REMARKS
CAPE GIRARDEAU RAIN      71  68  90 W10       29.98F
FARMINGTON     CLOUDY    70  66  88 SW9       29.98F
WEST PLAINS    CLOUDY    68  65  90 S8        30.02S

$$


USA.gov is the U.S. government's official web portal to all federal, state and local government web resources and services.